{"data":{"norad_id":64506,"intl_designator":"2025-134G","name":"KUIPER-00046","alt_names":[],"object_type":"PAYLOAD","status":"ACTIVE","operator":null,"country":"US","launch_date":"2025-06-23","launch_site_code":"AFETR","launch_vehicle":null,"mission":null,"orbit_class":"UNKNOWN","rcs_meters":null,"size_class":null,"mass_kg":null,"dimensions":null,"purposes":[],"wikipedia_slug":null,"has_3d_model":false,"image_url":null,"decayed_at":null,"tle_current":{"epoch":"2026-05-25T01:31:07.156128Z","epoch_age_seconds":65712,"freshness":"FRESH","line1":"1 64506U 25134G   26145.06327727  .00000886  00000+0  14522-3 0  9996","line2":"2 64506  51.8980 265.3166 0000510  97.7971 262.3050 14.79932721 51244","mean_motion":14.79932721,"eccentricity":5.1e-5,"inclination_deg":51.898,"raan_deg":265.3166,"arg_perigee_deg":97.7971,"mean_anomaly_deg":262.305,"bstar":0.00014522,"rev_number":5124,"period_min":97.301720515172,"perigee_km":629.17911855999,"apogee_km":629.893901258,"semimajor_km":7007.673509909,"source":"CELESTRAK","updated_at":"2026-05-25T13:38:04.572687Z"}}}